Regional Weather Roundup
Issued by NWS Sioux Falls, SD

Home | Current Version | Previous Version | Graphics & Text | Print | Product List | Glossary On
Versions: 1 2 3 4 5 6 7 8 9 10 11 12 13 14 15 16 17 18 19 20 21 22 23 24 25 26 27 28 29 30 31 32 33 34 35 36 37 38 39 40 41 42 43 44 45 46 47 48 49 50
000
ASUS43 KFSD 300302
RWRFSD

WEATHER ROUNDUP FOR SE SOUTH DAKOTA/SW MINNESOTA/NW IOWA
NATIONAL WEATHER SERVICE SIOUX FALLS SD
1000 PM CDT MON MAY 29 2017

NOTE: "FAIR" INDICATES FEW OR NO CLOUDS BELOW 12,000 FEET WITH NO
SIGNIFICANT WEATHER AND OR OBSTRUCTIONS TO VISIBILITY.


SDZ038>040-050-052>070-300400-
SOUTHEAST SOUTH DAKOTA

CITY           SKY/WX    TMP DP  RH WIND       PRES   REMARKS
BROOKINGS      CLEAR     52  43  71 NW6       29.98R
CHAMBERLAIN    PTCLDY    58  39  49 NW3       30.03R
HURON          CLEAR     50  38  63 W5        29.99R
MADISON        FAIR      54  45  71 W5        29.99S
MITCHELL       PTCLDY    59  47  64 CALM      30.00R
SIOUX FALLS    PTCLDY    52  44  74 NW6       29.98S
WINNER         FAIR      59  39  47 N5        30.04R
YANKTON        CLEAR     55  45  68 N7        30.00S
$$

MNZ071-072-080-081-089-090-097-098-300400-
SOUTHWEST MINNESOTA

CITY           SKY/WX    TMP DP  RH WIND       PRES   REMARKS
FAIRMONT       CLOUDY    53  49  86 W8        29.96S
JACKSON        CLEAR     50  45  81 CALM      29.98R
LUVERNE        CLEAR     52  41  66 W6        29.99R
MARSHALL       CLEAR     53  46  77 NW7       29.95R
MONTEVIDEO     CLOUDY    57  46  67 N14G22    29.93R
PIPESTONE      CLEAR     55  37  50 NW6       29.98R
REDWOOD FALLS  PTCLDY    53  44  71 W7        29.92S
TRACY          PTCLDY    55  48  75 W5        29.96R
WINDOM         CLEAR     52  48  87 SW6       29.96R
WORTHINGTON    CLEAR     51  46  83 W8        29.98R
$$

IAZ001>003-012>014-020>022-031-032-NEZ013-014-SDZ071-300400-
NORTHWEST IOWA

CITY           SKY/WX    TMP DP  RH WIND       PRES   REMARKS
CHEROKEE       CLEAR     55  43  63 N3        30.00S
DENISON        CLEAR     59  43  55 W6        30.03R
ESTHERVILLE    PTCLDY    52  51  97 W7        29.97S
LE MARS        PTCLDY    57  43  58 CALM      30.01S
ORANGE CITY    CLEAR     57  45  62 CALM      30.00S
SHELDON        CLEAR     55  41  58 W3        29.98R
SIOUX CITY     CLEAR     57  42  57 CALM      30.01R
SPENCER        CLEAR     52  43  71 NW8       29.99R
STORM LAKE     MOCLDY    59  41  51 NW9       30.00R
$$

ABBREVIATIONS USED IN REMARKS
   TC - TEMPERATURE IN CELSIUS
  WCI - WIND CHILL INDEX
   HX - HEAT INDEX
  VSB - VISIBILITY





USA.gov is the U.S. government's official web portal to all federal, state and local government web resources and services.